| time (UTC) | temp C | wind direction | speed KPH | gust KPH | rain 1hr cm | rain 24hr cm | rain mn cm | humidity % | barometer mb |
| 20260504050648 | 8 | 0 | 0.0 | 3.2 | 0.00 | 0.00 | 0.00 | 64 | 1010.6 |
| 20260504045638 | 8 | 0 | 0.0 | 3.2 | 0.00 | 0.00 | 0.00 | 63 | 1010.6 |
| 20260504044701 | 9 | 0 | 0.0 | 0.0 | 0.00 | 0.00 | 0.00 | 63 | 1010.6 |
| 20260504043656 | 9 | 0 | 0.0 | 0.0 | 0.00 | 0.00 | 0.00 | 63 | 1010.5 |
| 20260504042717 | 9 | 0 | 0.0 | 1.6 | 0.00 | 0.00 | 0.00 | 62 | 1010.4 |
| 20260504041726 | 9 | 0 | 0.0 | 3.2 | 0.00 | 0.00 | 0.00 | 62 | 1010.3 |
| 20260504040733 | 9 | 0 | 1.6 | 4.8 | 0.00 | 0.00 | 0.00 | 62 | 1010.2 |
| 20260504035731 | 9 | 115 | 1.6 | 6.4 | 0.00 | 0.00 | 0.00 | 62 | 1010.1 |
| 20260504034734 | 9 | 128 | 1.6 | 6.4 | 0.00 | 0.00 | 0.00 | 62 | 1010.0 |
| 20260504033714 | 8 | 137 | 0.0 | 4.8 | 0.00 | 0.00 | 0.00 | 63 | 1010.1 |
| 20260504032658 | 8 | 146 | 0.0 | 0.0 | 0.00 | 0.00 | 0.00 | 63 | 1010.1 |
| 20260504031640 | 9 | 148 | 0.0 | 0.0 | 0.00 | 0.00 | 0.00 | 64 | 1010.1 |
| 20260504030620 | 9 | 147 | 0.0 | 0.0 | 0.00 | 0.00 | 0.00 | 64 | 1010.1 |
| 20260504022202 | 10 | 0 | 0.0 | 0.0 | 0.00 | 0.00 | 0.00 | 61 | 1010.0 |
| 20260504021158 | 11 | 0 | 0.0 | 0.0 | 0.00 | 0.00 | 0.00 | 60 | 1010.0 |
| 20260504020134 | 11 | 0 | 0.0 | 0.0 | 0.00 | 0.00 | 0.00 | 58 | 1010.0 |
| 20260504015125 | 11 | 0 | 0.0 | 0.0 | 0.00 | 0.00 | 0.00 | 57 | 1010.0 |
| 20260504014130 | 12 | 0 | 0.0 | 0.0 | 0.00 | 0.00 | 0.00 | 55 | 1009.9 |
| 20260504013120 | 12 | 146 | 0.0 | 1.6 | 0.00 | 0.00 | 0.00 | 53 | 1009.8 |
| 20260504012140 | 12 | 146 | 0.0 | 0.0 | 0.00 | 0.00 | 0.00 | 52 | 1009.7 |
| 20260504011119 | 13 | 146 | 0.0 | 0.0 | 0.00 | 0.00 | 0.00 | 50 | 1009.6 |
| 20260504010055 | 13 | 146 | 0.0 | 0.0 | 0.00 | 0.00 | 0.00 | 49 | 1009.5 |
| 20260504005115 | 13 | 144 | 0.0 | 0.0 | 0.00 | 0.00 | 0.00 | 48 | 1009.3 |
| 20260504004123 | 13 | 144 | 0.0 | 1.6 | 0.00 | 0.00 | 0.00 | 47 | 1009.2 |
| 20260504003137 | 13 | 176 | 0.0 | 3.2 | 0.00 | 0.00 | 0.00 | 46 | 1009.2 |
| 20260504002106 | 14 | 186 | 0.0 | 8.0 | 0.00 | 0.00 | 0.00 | 45 | 1008.9 |
| 20260504001031 | 14 | 195 | 1.6 | 6.4 | 0.00 | 0.00 | 0.00 | 45 | 1008.8 |
| 20260504000016 | 15 | 179 | 1.6 | 1.6 | 0.00 | 0.00 | 0.00 | 44 | 1008.6 |
| 20260503235018 | 15 | 195 | 0.0 | 12.9 | 0.00 | 0.00 | 0.00 | 44 | 1008.5 |
| 20260503232811 | 15 | 0 | 1.6 | 16.1 | 0.00 | 0.00 | 0.00 | 42 | 1008.3 |
| 20260503231752 | 15 | 0 | 1.6 | 14.5 | 0.00 | 0.00 | 0.00 | 42 | 1008.2 |
| 20260503225655 | 15 | 0 | 3.2 | 20.9 | 0.00 | 0.00 | 0.00 | 41 | 1008.1 |
| 20260503224627 | 15 | 211 | 4.8 | 20.9 | 0.00 | 0.00 | 0.00 | 41 | 1008.0 |
| 20260503223647 | 15 | 134 | 4.8 | 17.7 | 0.00 | 0.00 | 0.00 | 40 | 1008.0 |
| 20260503222654 | 15 | 263 | 4.8 | 24.1 | 0.00 | 0.00 | 0.00 | 40 | 1007.9 |
| 20260503221701 | 15 | 176 | 3.2 | 24.1 | 0.00 | 0.00 | 0.00 | 39 | 1007.9 |
| 20260503215513 | 16 | 202 | 6.4 | 24.1 | 0.00 | 0.00 | 0.00 | 39 | 1008.0 |
| 20260503214506 | 16 | 277 | 6.4 | 24.1 | 0.00 | 0.00 | 0.00 | 39 | 1007.9 |
| 20260503213510 | 16 | 77 | 4.8 | 22.5 | 0.00 | 0.00 | 0.00 | 39 | 1007.9 |
| 20260503212435 | 16 | 173 | 6.4 | 22.5 | 0.00 | 0.00 | 0.00 | 39 | 1007.9 |
| 20260503211422 | 16 | 0 | 6.4 | 37.0 | 0.00 | 0.00 | 0.00 | 38 | 1007.8 |
| 20260503210354 | 16 | 0 | 9.7 | 37.0 | 0.00 | 0.00 | 0.00 | 38 | 1007.9 |
| 20260503205351 | 16 | 0 | 8.0 | 29.0 | 0.00 | 0.00 | 0.00 | 37 | 1007.8 |
| 20260503204355 | 16 | 0 | 8.0 | 24.1 | 0.00 | 0.00 | 0.00 | 38 | 1008.0 |
| 20260503203356 | 17 | 0 | 6.4 | 24.1 | 0.00 | 0.00 | 0.00 | 38 | 1007.9 |
| 20260503202345 | 17 | 0 | 6.4 | 35.4 | 0.00 | 0.00 | 0.00 | 38 | 1007.9 |
| 20260503201317 | 17 | 0 | 4.8 | 35.4 | 0.00 | 0.00 | 0.00 | 38 | 1008.0 |
| 20260503200256 | 16 | 0 | 6.4 | 25.7 | 0.00 | 0.00 | 0.00 | 39 | 1008.1 |
| 20260503195304 | 17 | 0 | 6.4 | 29.0 | 0.00 | 0.00 | 0.00 | 38 | 1008.3 |
| 20260503194314 | 16 | 0 | 6.4 | 29.0 | 0.00 | 0.00 | 0.00 | 38 | 1008.3 |
| 20260503193323 | 17 | 0 | 4.8 | 25.7 | 0.00 | 0.00 | 0.00 | 39 | 1008.3 |
| 20260503191132 | 16 | 0 | 4.8 | 29.0 | 0.00 | 0.00 | 0.00 | 40 | 1008.6 |
| 20260503190151 | 16 | 0 | 6.4 | 37.0 | 0.00 | 0.00 | 0.00 | 40 | 1008.6 |
| 20260503183945 | 16 | 0 | 9.7 | 27.4 | 0.00 | 0.00 | 0.00 | 41 | 1008.6 |
| 20260503182953 | 16 | 0 | 8.0 | 27.4 | 0.00 | 0.00 | 0.00 | 41 | 1008.8 |
| 20260503181920 | 16 | 267 | 6.4 | 20.9 | 0.00 | 0.00 | 0.00 | 42 | 1008.9 |
| 20260503180924 | 15 | 83 | 6.4 | 25.7 | 0.00 | 0.00 | 0.00 | 44 | 1008.9 |
| 20260503174733 | 13 | 0 | 6.4 | 32.2 | 0.00 | 0.00 | 0.00 | 46 | 1009.2 |
| 20260503173741 | 13 | 355 | 8.0 | 32.2 | 0.00 | 0.00 | 0.00 | 46 | 1009.4 |
| 20260503172718 | 13 | 146 | 8.0 | 24.1 | 0.00 | 0.00 | 0.00 | 46 | 1009.4 |
| 20260503171721 | 13 | 0 | 4.8 | 22.5 | 0.00 | 0.00 | 0.00 | 49 | 1009.3 |
| 20260503170713 | 12 | 0 | 6.4 | 24.1 | 0.00 | 0.00 | 0.00 | 48 | 1009.6 |
| 20260503130842 | 10 | 277 | 6.4 | 20.9 | 0.00 | 0.00 | 0.00 | 59 | 1009.9 |
| 20260503110648 | 6 | 236 | 3.2 | 20.9 | 0.00 | 0.00 | 0.00 | 67 | 1009.6 |
| 20260503080712 | 7 | 187 | 0.0 | 6.4 | 0.00 | 0.05 | 0.00 | 64 | 1008.5 |
| 20260503072507 | 7 | 300 | 0.0 | 8.0 | 0.00 | 0.05 | 0.00 | 63 | 1008.3 |
| 20260503070339 | 8 | 226 | 0.0 | 0.0 | 0.00 | 0.05 | 0.00 | 62 | 1008.5 |